Date,TemperatureHighF,TemperatureAvgF,TemperatureLowF,DewpointHighF,DewpointAvgF,DewpointLowF,HumidityHigh,HumidityAvg,HumidityLow,PressureMaxIn,PressureMinIn,WindSpeedMaxMPH,WindSpeedAvgMPH,GustSpeedMaxMPH,PrecipitationSumIn
2013-2-1,20,16,12,12,8,4,84,70,61,30.06,29.48,29,3,29,0.00
2013-2-2,17,13,5,12,7,1,87,79,63,30.16,30.02,17,1,17,0.00
2013-2-3,23,13,0,12,7,-4,89,77,55,30.02,29.74,11,1,11,0.00
2013-2-4,22,15,4,13,5,-3,87,66,34,29.89,29.71,21,2,21,0.00
2013-2-5,19,11,-4,9,1,-8,83,66,46,30.01,29.89,10,0,10,0.00
2013-2-6,29,20,7,21,11,-4,92,69,46,30.32,29.87,19,2,19,0.00
2013-2-7,17,10,2,3,-2,-6,70,58,46,30.53,30.31,13,1,13,0.00
2013-2-8,21,18,14,18,13,1,88,81,50,30.41,29.86,48,9,59,0.10
2013-2-9,17,10,3,14,4,-3,87,79,66,30.34,29.86,23,5,23,0.02
2013-2-10,25,9,-7,11,1,-12,92,71,46,30.49,30.30,9,1,9,0.00
2013-2-11,40,34,11,37,24,3,91,72,26,30.29,29.59,22,3,22,0.12
2013-2-12,34,32,29,28,26,21,82,78,73,29.82,29.57,17,2,17,0.00
2013-2-13,34,29,25,24,21,17,83,73,51,29.81,29.72,9,1,9,0.00
2013-2-14,33,28,25,22,21,20,86,76,60,29.92,29.71,9,0,9,0.00
2013-2-15,38,34,26,30,26,19,86,70,54,29.92,29.83,15,3,15,0.00
2013-2-16,30,24,16,23,13,3,85,64,48,29.94,29.84,14,2,14,0.00
2013-2-17,16,14,13,4,3,2,63,60,56,29.85,29.76,15,5,15,0.00
2013-2-18,14,9,7,4,2,-1,81,70,59,29.88,29.64,11,7,25,0.00
2013-2-19,22,11,5,2,-2,-5,74,58,32,30.16,29.89,11,4,25,0.00
2013-2-20,38,22,9,20,14,2,83,71,35,30.15,29.56,15,2,27,0.10
2013-2-21,20,15,7,18,10,3,96,82,74,30.37,29.73,16,2,16,0.02
2013-2-22,33,26,13,24,19,10,88,76,63,30.42,30.21,21,2,21,0.00
2013-2-23,31,30,29,29,25,20,92,81,67,30.22,29.86,22,3,22,0.03
2013-2-24,36,31,28,31,28,25,90,87,82,29.92,29.73,13,2,13,0.04
2013-2-25,34,30,27,31,27,25,92,88,83,30.21,29.92,8,0,8,0.00
2013-2-26,38,32,27,29,27,25,92,82,68,30.29,30.05,32,3,32,0.00
2013-2-27,37,32,27,32,28,25,93,88,69,30.28,29.57,56,19,56,0.11
2013-2-28,41,34,30,36,30,26,93,87,71,30.00,29.53,43,4,56,0.11